Time,TemperatureF,DewpointF,PressureIn,WindDirection,WindDirectionDegrees,WindSpeedMPH,WindSpeedGustMPH,Humidity,HourlyPrecipIn,Conditions,Clouds,dailyrainin,SoftwareType,DateUTC
2013-02-03 00:10:00,4.0,2.0,29.31,NE,40,0.0,1.0,89,0.00,,,0.00,weatherlink.com 1.10,2013-02-03 05:10:00,
2013-02-03 00:25:00,4.0,1.0,29.31,NE,40,0.0,1.0,88,0.00,,,0.00,weatherlink.com 1.10,2013-02-03 05:25:00,
2013-02-03 00:40:00,4.0,1.0,29.30,NE,40,0.0,0.0,88,0.00,,,0.00,weatherlink.com 1.10,2013-02-03 05:40:00,
2013-02-03 00:55:00,4.0,1.0,29.30,NE,40,0.0,1.0,88,0.00,,,0.00,weatherlink.com 1.10,2013-02-03 05:55:00,
2013-02-03 01:10:00,4.0,1.0,29.29,NE,40,0.0,0.0,88,0.00,,,0.00,weatherlink.com 1.10,2013-02-03 06:10:00,
2013-02-03 01:25:00,4.0,2.0,29.29,NE,40,0.0,1.0,89,0.00,,,0.00,weatherlink.com 1.10,2013-02-03 06:25:00,
2013-02-03 01:40:00,3.7,1.0,29.28,NE,40,0.0,0.0,88,0.00,,,0.00,weatherlink.com 1.10,2013-02-03 06:40:00,
2013-02-03 01:55:00,3.8,1.0,29.28,NE,40,0.0,1.0,89,0.00,,,0.00,weatherlink.com 1.10,2013-02-03 06:55:00,
2013-02-03 02:10:00,3.7,1.0,29.29,NE,40,0.0,0.0,88,0.00,,,0.00,weatherlink.com 1.10,2013-02-03 07:10:00,
2013-02-03 02:25:00,3.2,1.0,29.28,NE,40,0.0,0.0,89,0.00,,,0.00,weatherlink.com 1.10,2013-02-03 07:25:00,
2013-02-03 02:41:00,2.9,0.0,29.28,NE,40,0.0,0.0,89,0.00,,,0.00,weatherlink.com 1.10,2013-02-03 07:41:00,
2013-02-03 02:55:00,2.5,0.0,29.27,NE,40,0.0,0.0,89,0.00,,,0.00,weatherlink.com 1.10,2013-02-03 07:55:00,
2013-02-03 03:11:00,2.0,-1.0,29.26,NE,40,0.0,0.0,89,0.00,,,0.00,weatherlink.com 1.10,2013-02-03 08:11:00,
2013-02-03 03:25:00,1.9,0.0,29.26,NE,40,0.0,1.0,90,0.00,,,0.00,weatherlink.com 1.10,2013-02-03 08:25:00,
2013-02-03 03:41:00,1.8,0.0,29.26,NE,40,0.0,0.0,90,0.00,,,0.00,weatherlink.com 1.10,2013-02-03 08:41:00,
2013-02-03 03:56:00,1.9,0.0,29.25,NE,40,0.0,0.0,90,0.00,,,0.00,weatherlink.com 1.10,2013-02-03 08:56:00,
2013-02-03 04:11:00,1.7,-1.0,29.24,NE,40,0.0,0.0,90,0.00,,,0.00,weatherlink.com 1.10,2013-02-03 09:11:00,
2013-02-03 04:26:00,2.2,0.0,29.24,NE,40,0.0,0.0,90,0.00,,,0.00,weatherlink.com 1.10,2013-02-03 09:26:00,
2013-02-03 04:41:00,2.8,1.0,29.24,NE,40,0.0,0.0,90,0.00,,,0.00,weatherlink.com 1.10,2013-02-03 09:41:00,
2013-02-03 04:56:00,3.4,1.0,29.24,NE,40,0.0,0.0,90,0.00,,,0.00,weatherlink.com 1.10,2013-02-03 09:56:00,
2013-02-03 05:11:00,4.0,2.0,29.23,NE,40,0.0,1.0,89,0.00,,,0.00,weatherlink.com 1.10,2013-02-03 10:11:00,
2013-02-03 05:26:00,3.8,1.0,29.22,NE,40,0.0,0.0,89,0.00,,,0.00,weatherlink.com 1.10,2013-02-03 10:26:00,
2013-02-03 05:41:00,3.7,1.0,29.21,NE,40,0.0,0.0,89,0.00,,,0.00,weatherlink.com 1.10,2013-02-03 10:41:00,
2013-02-03 05:56:00,3.7,1.0,29.21,NE,40,0.0,0.0,89,0.00,,,0.00,weatherlink.com 1.10,2013-02-03 10:56:00,
2013-02-03 06:11:00,4.1,2.0,29.20,NE,40,0.0,1.0,89,0.00,,,0.00,weatherlink.com 1.10,2013-02-03 11:11:00,
2013-02-03 06:26:00,5.1,3.0,29.21,NE,40,0.0,0.0,90,0.00,,,0.00,weatherlink.com 1.10,2013-02-03 11:26:00,
2013-02-03 06:42:00,5.6,3.0,29.21,NE,40,0.0,0.0,90,0.00,,,0.00,weatherlink.com 1.10,2013-02-03 11:42:00,
2013-02-03 06:57:00,5.8,3.0,29.21,NE,40,0.0,1.0,89,0.00,,,0.00,weatherlink.com 1.10,2013-02-03 11:57:00,
2013-02-03 07:12:00,6.1,4.0,29.21,NE,40,0.0,1.0,89,0.00,,,0.00,weatherlink.com 1.10,2013-02-03 12:12:00,
2013-02-03 07:27:00,6.3,4.0,29.20,NE,41,0.0,0.0,89,0.00,,,0.00,weatherlink.com 1.10,2013-02-03 12:27:00,
2013-02-03 07:42:00,7.4,5.0,29.20,NE,43,0.0,1.0,90,0.00,,,0.00,weatherlink.com 1.10,2013-02-03 12:42:00,
2013-02-03 07:57:00,8.4,6.0,29.20,NE,41,0.0,1.0,90,0.00,,,0.00,weatherlink.com 1.10,2013-02-03 12:57:00,
2013-02-03 08:12:00,8.8,6.0,29.20,NE,41,0.0,0.0,89,0.00,,,0.00,weatherlink.com 1.10,2013-02-03 13:12:00,
2013-02-03 08:27:00,9.7,7.0,29.20,South,172,1.0,2.0,89,0.00,,,0.00,weatherlink.com 1.10,2013-02-03 13:27:00,
2013-02-03 08:42:00,10.6,8.0,29.20,SW,223,1.0,2.0,87,0.00,,,0.00,weatherlink.com 1.10,2013-02-03 13:42:00,
2013-02-03 08:57:00,11.3,8.0,29.20,SW,231,2.0,3.0,85,0.00,,,0.00,weatherlink.com 1.10,2013-02-03 13:57:00,
2013-02-03 09:12:00,11.7,7.0,29.20,WSW,256,4.0,7.0,82,0.00,,,0.00,weatherlink.com 1.10,2013-02-03 14:12:00,
2013-02-03 09:27:00,11.8,7.0,29.20,SSW,205,4.0,7.0,80,0.00,,,0.00,weatherlink.com 1.10,2013-02-03 14:27:00,
2013-02-03 09:42:00,12.7,8.0,29.20,SSW,211,4.0,9.0,81,0.00,,,0.00,weatherlink.com 1.10,2013-02-03 14:42:00,
2013-02-03 09:57:00,13.0,8.0,29.19,SW,224,4.0,8.0,80,0.00,,,0.00,weatherlink.com 1.10,2013-02-03 14:57:00,
2013-02-03 10:13:00,13.7,9.0,29.18,SW,234,7.0,9.0,80,0.00,,,0.00,weatherlink.com 1.10,2013-02-03 15:13:00,
2013-02-03 10:27:00,13.6,9.0,29.18,WNW,282,2.0,8.0,82,0.00,,,0.00,weatherlink.com 1.10,2013-02-03 15:27:00,
2013-02-03 10:43:00,13.4,9.0,29.18,WSW,239,7.0,10.0,81,0.00,,,0.00,weatherlink.com 1.10,2013-02-03 15:43:00,
2013-02-03 10:58:00,13.7,9.0,29.17,SSW,195,3.0,9.0,82,0.00,,,0.00,weatherlink.com 1.10,2013-02-03 15:58:00,
2013-02-03 11:13:00,14.3,10.0,29.17,SSW,204,3.0,12.0,82,0.00,,,0.00,weatherlink.com 1.10,2013-02-03 16:13:00,
2013-02-03 11:28:00,14.7,10.0,29.17,SSE,162,4.0,10.0,81,0.00,,,0.00,weatherlink.com 1.10,2013-02-03 16:28:00,
2013-02-03 11:43:00,15.0,10.0,29.17,WSW,240,3.0,9.0,82,0.00,,,0.00,weatherlink.com 1.10,2013-02-03 16:43:00,
2013-02-03 11:58:00,15.6,11.0,29.16,South,191,2.0,7.0,82,0.00,,,0.00,weatherlink.com 1.10,2013-02-03 16:58:00,
2013-02-03 12:13:00,16.4,12.0,29.15,WSW,246,9.0,9.0,81,0.00,,,0.00,weatherlink.com 1.10,2013-02-03 17:13:00,
2013-02-03 12:28:00,16.3,11.0,29.14,SW,223,2.0,7.0,81,0.00,,,0.00,weatherlink.com 1.10,2013-02-03 17:28:00,
2013-02-03 12:43:00,16.6,12.0,29.14,SSW,210,1.0,8.0,82,0.00,,,0.00,weatherlink.com 1.10,2013-02-03 17:43:00,
2013-02-03 12:59:00,17.0,12.0,29.13,SSW,194,4.0,6.0,81,0.00,,,0.00,weatherlink.com 1.10,2013-02-03 17:59:00,
2013-02-03 13:13:00,17.5,13.0,29.13,SW,233,4.0,7.0,82,0.00,,,0.00,weatherlink.com 1.10,2013-02-03 18:13:00,
2013-02-03 13:28:00,17.4,13.0,29.13,WSW,238,6.0,9.0,82,0.00,,,0.00,weatherlink.com 1.10,2013-02-03 18:28:00,
2013-02-03 13:44:00,17.5,13.0,29.13,SW,226,8.0,9.0,82,0.00,,,0.00,weatherlink.com 1.10,2013-02-03 18:44:00,
2013-02-03 13:58:00,17.3,13.0,29.13,SW,231,5.0,9.0,84,0.00,,,0.00,weatherlink.com 1.10,2013-02-03 18:58:00,
2013-02-03 14:14:00,17.3,13.0,29.12,South,171,2.0,9.0,83,0.00,,,0.00,weatherlink.com 1.10,2013-02-03 19:14:00,
2013-02-03 14:29:00,17.8,13.0,29.12,SW,231,3.0,8.0,82,0.00,,,0.00,weatherlink.com 1.10,2013-02-03 19:29:00,
2013-02-03 14:44:00,18.3,13.0,29.12,WSW,253,5.0,9.0,79,0.00,,,0.00,weatherlink.com 1.10,2013-02-03 19:44:00,
2013-02-03 14:59:00,18.1,14.0,29.12,WSW,238,8.0,10.0,83,0.00,,,0.00,weatherlink.com 1.10,2013-02-03 19:59:00,
2013-02-03 15:14:00,18.4,14.0,29.13,WSW,249,10.0,14.0,81,0.00,,,0.00,weatherlink.com 1.10,2013-02-03 20:14:00,
2013-02-03 15:29:00,18.7,13.0,29.14,West,260,2.0,8.0,79,0.00,,,0.00,weatherlink.com 1.10,2013-02-03 20:29:00,
2013-02-03 15:44:00,19.4,12.0,29.13,WNW,297,6.0,14.0,74,0.00,,,0.00,weatherlink.com 1.10,2013-02-03 20:44:00,
2013-02-03 15:59:00,20.0,12.0,29.14,WNW,284,4.0,9.0,70,0.00,,,0.00,weatherlink.com 1.10,2013-02-03 20:59:00,
2013-02-03 16:14:00,19.2,11.0,29.15,West,266,11.0,16.0,70,0.00,,,0.00,weatherlink.com 1.10,2013-02-03 21:14:00,
2013-02-03 16:29:00,18.9,10.0,29.15,WSW,242,5.0,15.0,68,0.00,,,0.00,weatherlink.com 1.10,2013-02-03 21:29:00,
2013-02-03 16:44:00,18.8,10.0,29.16,West,276,7.0,11.0,69,0.00,,,0.00,weatherlink.com 1.10,2013-02-03 21:44:00,
2013-02-03 17:00:00,18.2,13.0,29.16,WSW,255,7.0,9.0,79,0.00,,,0.00,weatherlink.com 1.10,2013-02-03 22:00:00,
2013-02-03 17:14:00,17.5,13.0,29.17,WSW,253,7.0,17.0,81,0.00,,,0.00,weatherlink.com 1.10,2013-02-03 22:14:00,
2013-02-03 17:30:00,16.8,12.0,29.18,West,266,3.0,16.0,80,0.00,,,0.00,weatherlink.com 1.10,2013-02-03 22:30:00,
2013-02-03 17:45:00,16.8,10.0,29.19,SW,226,2.0,11.0,74,0.00,,,0.00,weatherlink.com 1.10,2013-02-03 22:45:00,
2013-02-03 18:00:00,16.4,9.0,29.19,WNW,291,5.0,10.0,72,0.00,,,0.00,weatherlink.com 1.10,2013-02-03 23:00:00,
2013-02-03 18:15:00,15.9,8.0,29.20,West,270,6.0,7.0,71,0.00,,,0.00,weatherlink.com 1.10,2013-02-03 23:15:00,
2013-02-03 18:30:00,15.6,7.0,29.20,SW,236,2.0,4.0,70,0.00,,,0.00,weatherlink.com 1.10,2013-02-03 23:30:00,
2013-02-03 18:45:00,15.1,7.0,29.21,SW,229,3.0,6.0,69,0.00,,,0.00,weatherlink.com 1.10,2013-02-03 23:45:00,
2013-02-03 19:00:00,14.9,6.0,29.22,SW,234,4.0,8.0,68,0.00,,,0.00,weatherlink.com 1.10,2013-02-04 00:00:00,
2013-02-03 19:15:00,14.6,6.0,29.22,SW,221,4.0,6.0,69,0.00,,,0.00,weatherlink.com 1.10,2013-02-04 00:15:00,
2013-02-03 19:30:00,14.4,7.0,29.23,WSW,242,5.0,7.0,71,0.00,,,0.00,weatherlink.com 1.10,2013-02-04 00:30:00,
2013-02-03 19:45:00,14.0,7.0,29.23,WSW,239,2.0,5.0,72,0.00,,,0.00,weatherlink.com 1.10,2013-02-04 00:45:00,
2013-02-03 20:01:00,13.7,7.0,29.23,WSW,240,2.0,4.0,73,0.00,,,0.00,weatherlink.com 1.10,2013-02-04 01:01:00,
2013-02-03 20:16:00,13.6,7.0,29.23,SW,222,2.0,3.0,75,0.00,,,0.00,weatherlink.com 1.10,2013-02-04 01:16:00,
2013-02-03 20:31:00,13.5,7.0,29.24,SW,231,1.0,4.0,76,0.00,,,0.00,weatherlink.com 1.10,2013-02-04 01:31:00,
2013-02-03 20:45:00,13.4,8.0,29.24,WSW,248,3.0,5.0,78,0.00,,,0.00,weatherlink.com 1.10,2013-02-04 01:45:00,
2013-02-03 21:00:00,13.4,8.0,29.24,SW,233,2.0,5.0,80,0.00,,,0.00,weatherlink.com 1.10,2013-02-04 02:00:00,
2013-02-03 21:15:00,13.3,9.0,29.25,WSW,246,3.0,5.0,81,0.00,,,0.00,weatherlink.com 1.10,2013-02-04 02:15:00,
2013-02-03 21:30:00,13.1,9.0,29.25,WSW,238,1.0,4.0,82,0.00,,,0.00,weatherlink.com 1.10,2013-02-04 02:30:00,
2013-02-03 21:45:00,13.2,9.0,29.26,WSW,240,2.0,5.0,82,0.00,,,0.00,weatherlink.com 1.10,2013-02-04 02:45:00,
2013-02-03 22:01:00,13.1,9.0,29.26,SW,234,3.0,5.0,83,0.00,,,0.00,weatherlink.com 1.10,2013-02-04 03:01:00,
2013-02-03 22:16:00,13.0,9.0,29.26,WSW,240,3.0,4.0,83,0.00,,,0.00,weatherlink.com 1.10,2013-02-04 03:16:00,
2013-02-03 22:31:00,13.1,9.0,29.26,WSW,238,1.0,5.0,84,0.00,,,0.00,weatherlink.com 1.10,2013-02-04 03:31:00,
2013-02-03 22:45:00,13.0,9.0,29.26,SW,233,2.0,4.0,84,0.00,,,0.00,weatherlink.com 1.10,2013-02-04 03:45:00,
2013-02-03 23:00:00,13.0,9.0,29.26,WSW,239,2.0,4.0,85,0.00,,,0.00,weatherlink.com 1.10,2013-02-04 04:00:00,
2013-02-03 23:15:00,13.0,9.0,29.26,WSW,239,1.0,5.0,85,0.00,,,0.00,weatherlink.com 1.10,2013-02-04 04:15:00,
2013-02-03 23:31:00,12.8,9.0,29.26,SW,232,2.0,4.0,86,0.00,,,0.00,weatherlink.com 1.10,2013-02-04 04:31:00,
2013-02-03 23:46:00,12.8,9.0,29.26,WSW,238,2.0,5.0,86,0.00,,,0.00,weatherlink.com 1.10,2013-02-04 04:46:00,